Regional Weather Roundup
Issued by NWS Kansas City/Pleasant Hill, MO

Home | Current Version | Previous Version | Graphics & Text | Print | Product List | Glossary Off
Versions: 1 2 3 4 5 6 7 8 9 10 11 12 13 14 15 16 17 18 19 20 21 22 23 24 25 26 27 28

000
ASUS43 KEAX 210310
RWREAX

WEATHER ROUNDUP FOR EASTERN KANSAS AND NORTHWEST MISSOURI
NATIONAL WEATHER SERVICE KANSAS CITY/PLEASANT HILL MO
900 PM CST TUE FEB 20 2018

KSZ040-057-103>105-MOZ028-029-037-043-210400-
...KANSAS CITY METROPOLITAN AREA...

CITY           SKY/WX    TMP DP  RH WIND       PRES   REMARKS
K.C. INTL      CLOUDY    20  15  81 N15       30.29R WCI   6
K.C. DOWNTOWN  CLOUDY    23  16  74 N15G21    30.31R WCI  10
LEES SUMMIT    CLOUDY    22  18  85 N16       30.29R WCI   8
OLATHE - IXD   CLOUDY    20  17  88 N13       30.31R WCI   7
OLATHE - OJC   CLOUDY    21  17  84 N14       30.29R WCI   8
LAWRENCE       CLOUDY    22  16  78 NW14      30.32R WCI   9

$$

MOZ001>008-011>017-020>025-030>033-038>040-044>046-053-054-210400-
...NORTHERN AND CENTRAL MISSOURI...

CITY           SKY/WX    TMP DP  RH WIND       PRES   REMARKS
ST. JOSEPH     MOCLDY    20  14  77 N15       30.34R WCI   6
MOSBY          CLOUDY    23  18  80 N12       30.30R WCI  12
WARRENSBURG    CLOUDY    25  21  86 NW6       30.26R WCI  18
WHITEMAN AFB   MOCLDY    25  20  84 CALM      30.20R
CLINTON        CLOUDY    27  23  86 CALM      30.28R
SEDALIA        FRZ RAIN  28  25  88 N15G24    30.24R WCI  16
WARSAW         NOT AVBL
CHILLICOTHE      N/A     23  18  81 N7        30.30R WCI  15
KIRKSVILLE     CLOUDY    23  20  88 NW14G24   30.25R WCI  11

$$

MOZ041-047>049-056>058-063>065-088>090-097-210400-
...EASTERN AND SOUTHERN MISSOURI...

CITY           SKY/WX    TMP DP  RH WIND       PRES   REMARKS
ST. LOUIS INTL RAIN      38  37  97 N13       30.10F WCI  30
SPIRIT OF STL  RAIN      37  35  92 N9        30.14R WCI  30
COLUMBIA       FRZ RAIN  32  30  92 NW14      30.20R FOG     WCI  22
JEFFERSON CITY RAIN      33  30  88 NW9       30.21R FOG     WCI  25
ROLLA          LGT RAIN  33  33 100 N7        30.15R WCI  27
OSAGE BEACH    LGT SNOW  32  31  96 N8        30.20R FOG     WCI  25
SPRINGFIELD    LGT RAIN  33  32  96 N12       30.15R WCI  24
BRANSON        LGT RAIN  36  36 100 NW5       30.12R WCI  32
JOPLIN         FRZ RAIN  28  27  96 N21G28    30.25R WCI  15
WEST PLAINS    RAIN      41  39  93 N9        30.07R FOG

$$

IAZ060-094-KSZ022-034>040-054-083-096-NEZ052-066-093-210400-
...KANSAS...SOUTHEAST NEBRASKA AND IOWA...

CITY           SKY/WX    TMP DP  RH WIND       PRES   REMARKS
TOPEKA         CLOUDY    21  15  78 N9        30.34R WCI  11
MANHATTAN      CLOUDY    22  11  62 N9        30.35R WCI  12
EMPORIA        PTCLDY    21  15  78 N12       30.31R WCI   9
CHANUTE        MOCLDY    25  20  81 N15G23    30.28R WCI  13
WICHITA        CLOUDY    24  17  74 N14       30.30R WCI  12
OMAHA          CLOUDY    14   7  73 NW16G25   30.38R WCI  -2
LINCOLN        CLOUDY    15   7  70 N16       30.39R WCI  -1
FALLS CITY     CLOUDY    18  11  74 N12G18    30.33R WCI   5
LAMONI         CLOUDY    19  13  77 N12       30.28R WCI   7
DES MOINES     CLOUDY    18  12  77 NW16      30.31R WCI   3

$$





USA.gov is the U.S. government's official web portal to all federal, state and local government web resources and services.